Weather History for KW29 - September, 2013

Change the Weather History Date:

Sunday, September 22, 2013

  Actual Average (KESN) Record (KESN)
Temperature  
Mean Temperature 66 °F -  
Max Temperature 69 °F 78 °F 95 °F (1970)
Min Temperature 60 °F 55 °F 40 °F (1962)
Growing Degree Days 16 (Base 50)    
Moisture  
Dew Point 54 °F    
Average Humidity 70    
Maximum Humidity 100    
Minimum Humidity 46    
Precipitation  
Precipitation 0.00 in - - ()
Sea Level Pressure  
Sea Level Pressure 29.82 in    
Wind  
Wind Speed 8 mph (NNW)    
Max Wind Speed 14 mph    
Max Gust Speed 20 mph    
Visibility 10 miles    
Events Rain    
Averages and records for this station are not official NWS values.
T = Trace of Precipitation, MM = Missing Value Source: NWS Daily Summary

Daily Weather History Graph

Daily Weather History Graph

Search for Another Location

Airport or City:

Trip Planner

Search our weather history database for the weather conditions in past years. The results will help you decide how hot, cold, wet, or windy it might be!

Date:

Astronomy

Sep. 22, 2013 Rise Set
Actual Time 6:53 AM EDT 7:01 PM EDT
Civil Twilight 6:26 AM EDT 7:28 PM EDT
Nautical Twilight 5:55 AM EDT 7:59 PM EDT
Astronomical Twilight 5:23 AM EDT 8:31 PM EDT
Moon 8:52 PM EDT (9/22) 10:09 AM EDT (9/22)
Length of Visible Light 13h 02m
Length of Day
12h 08m
Waning Gibbous, 89% of the Moon is Illuminated
Sep 22
Waning Gibbous
Sep 26
Last Quarter
Oct 4
New
Oct 11
First Quarter
Oct 18
Full

Hourly Weather History & Observations

Time (EDT) Temp. Dew Point Humidity Pressure Visibility Wind Dir Wind Speed Gust Speed Precip Events Conditions
12:12 AM 64.4 °F 62.6 °F 94% 29.72 in 10.0 mi NNW 9.2 mph - N/A Rain Light Rain
12:32 AM 64.4 °F 62.6 °F 94% 29.73 in 10.0 mi NW 10.4 mph - N/A   Overcast
12:52 AM 64.4 °F 62.6 °F 94% 29.72 in 10.0 mi WNW 3.5 mph - N/A   Overcast
1:12 AM 64.4 °F 62.6 °F 94% 29.73 in 10.0 mi WNW 5.8 mph - N/A   Overcast
1:32 AM 64.4 °F 62.6 °F 94% 29.73 in 10.0 mi WNW 9.2 mph - N/A   Scattered Clouds
1:52 AM 64.4 °F 62.6 °F 94% 29.73 in 10.0 mi WNW 8.1 mph - N/A   Scattered Clouds
2:12 AM 64.4 °F 62.6 °F 94% 29.73 in 10.0 mi WNW 8.1 mph - N/A   Mostly Cloudy
2:32 AM 64.4 °F 62.6 °F 94% 29.73 in 10.0 mi WNW 6.9 mph - N/A   Mostly Cloudy
2:52 AM 64.4 °F 62.6 °F 94% 29.73 in 10.0 mi WNW 8.1 mph - N/A   Scattered Clouds
3:07 AM 62.6 °F 62.6 °F 100% 29.74 in 10.0 mi WNW 8.1 mph - N/A   Scattered Clouds
3:32 AM 62.6 °F 60.8 °F 94% 29.74 in 10.0 mi WNW 9.2 mph - N/A   Scattered Clouds
3:34 AM 62.6 °F 60.8 °F 94% 29.74 in 10.0 mi WNW 9.2 mph - N/A   Scattered Clouds
7:04 AM 62.6 °F 59.0 °F 88% 29.79 in 10.0 mi NW 5.8 mph - N/A   Clear
7:16 AM 62.6 °F 59.0 °F 88% 29.79 in 10.0 mi NW 6.9 mph - N/A   Clear
7:36 AM 62.6 °F 60.8 °F 94% 29.80 in 10.0 mi NW 5.8 mph - N/A   Clear
9:13 AM 64.4 °F 57.2 °F 77% 29.83 in 10.0 mi NNW 11.5 mph 17.3 mph N/A   Clear
9:21 AM 64.4 °F 57.2 °F 77% 29.83 in 10.0 mi NNW 11.5 mph 17.3 mph N/A   Clear
9:56 AM 64.4 °F 55.4 °F 73% 29.84 in 10.0 mi North 10.4 mph 19.6 mph N/A   Clear
10:54 AM 68.0 °F 53.6 °F 60% 29.84 in 10.0 mi North 9.2 mph 18.4 mph N/A   Clear
12:04 PM 68.0 °F 53.6 °F 60% 29.84 in 10.0 mi NNW 8.1 mph - N/A   Clear
2:10 PM 69.8 °F 48.2 °F 46% 29.83 in 10.0 mi NNW 9.2 mph 17.3 mph N/A   Scattered Clouds
2:24 PM 69.8 °F 50.0 °F 49% 29.83 in 10.0 mi NNW 12.7 mph 16.1 mph N/A   Scattered Clouds
2:44 PM 69.8 °F 50.0 °F 49% 29.82 in 10.0 mi North 9.2 mph - N/A   Scattered Clouds
3:47 PM 68.0 °F 48.2 °F 49% 29.82 in 10.0 mi NNW 8.1 mph - N/A   Scattered Clouds
4:54 PM 69.8 °F 48.2 °F 46% 29.82 in 10.0 mi NNW 6.9 mph - N/A   Scattered Clouds
5:14 PM 68.0 °F 50.0 °F 52% 29.83 in 10.0 mi North 4.6 mph - N/A   Scattered Clouds
5:34 PM 68.0 °F 50.0 °F 52% 29.84 in 10.0 mi North 5.8 mph - N/A   Mostly Cloudy
5:54 PM 68.0 °F 50.0 °F 52% 29.84 in 10.0 mi NNE 5.8 mph - N/A   Mostly Cloudy
6:14 PM 68.0 °F 50.0 °F 52% 29.84 in 10.0 mi NNE 3.5 mph - N/A   Scattered Clouds
6:34 PM 66.2 °F 50.0 °F 56% 29.85 in 10.0 mi North 5.8 mph - N/A   Scattered Clouds
6:41 PM 66.2 °F 50.0 °F 56% 29.85 in 10.0 mi NNE 3.5 mph - N/A   Scattered Clouds
8:48 PM 64.4 °F 44.6 °F 49% 29.89 in 10.0 mi NNW 11.5 mph - N/A   Scattered Clouds
9:54 PM 64.4 °F 44.6 °F 49% 29.91 in 10.0 mi North 10.4 mph 17.3 mph N/A   Clear
10:14 PM 64.4 °F 46.4 °F 52% 29.92 in 10.0 mi North 10.4 mph 17.3 mph N/A   Clear
10:34 PM 62.6 °F 46.4 °F 55% 29.92 in 10.0 mi North 11.5 mph 16.1 mph N/A   Clear
10:54 PM 62.6 °F 44.6 °F 52% 29.93 in 10.0 mi North 12.7 mph 16.1 mph N/A   Clear
11:14 PM 62.6 °F 44.6 °F 52% 29.93 in 10.0 mi North 9.2 mph 17.3 mph N/A   Clear
11:34 PM 62.6 °F 42.8 °F 48% 29.94 in 10.0 mi North 9.2 mph - N/A   Clear
11:54 PM 60.8 °F 44.6 °F 55% 29.94 in 10.0 mi North 13.8 mph - N/A   Clear